Home > Weather > Brighton > Past weeks

Flag for United Kingdom Weather for the Past 2 Weeks in Brighton, England, United Kingdom

Now
46 °F

Passing clouds.


Feels Like: 38 °F
Forecast: N/A
Wind: 24 mph from West

Location: Shoreham Airport

Current Time: Feb 8, 2016 at 10:31:40 PM

Latest Report: Feb 8, 2016 at 7:50 PM


Visibility: N/A

Pressure: 29.39 "Hg

Humidity: 66%

Dew point: 36 °F

Location of BrightonLocation

Historic Weather in Brighton — Graph

°F

Brighton Temperature Yesterday

Maximum temperature yesterday: 50 °F (at 11:20 AM)
Minimum temperature yesterday: 45 °F (at 8:50 AM)
Average temperature yesterday: 48 °F

High & Low Weather Summary for the Past Weeks

 TemperatureHumidityPressure
High57 °F (Feb 4, 12:50 PM)100% (Jan 25, 5:50 PM)30.39 "Hg (Jan 25, 5:50 PM)
Low32 °F (Jan 28, 7:50 AM)50% (Jan 30, 1:50 PM)29.15 "Hg (Feb 8, 7:50 AM)
Average49 °F85%29.93 "Hg
* Reported Jan 25 7:50 AM — Feb 8 7:50 PM, Brighton, Weather by CustomWeather, © 2016

Note: Actual official high and low records may vary slightly from our data, if they occured in-between our weather recording intervals... More about our weather records

Advertising

Brighton Weather History for the Previous 24 Hours

 ConditionsComfort  
Time TempWeatherWind HumidityBarometerVisibility
7:50 PM
Mon, Feb 8
46 °FPassing clouds.24 mph66%29.39 "HgN/A
7:20 PM46 °FPassing clouds.29 mph66%29.39 "HgN/A
6:50 PM46 °FClear.31 mph71%29.39 "Hg10 mi
6:20 PM46 °FPassing clouds.29 mph71%29.36 "HgN/A
5:50 PM48 °FPassing clouds.35 mph66%29.36 "HgN/A
5:20 PM48 °FPassing clouds.35 mph66%29.33 "Hg5 mi
4:50 PM48 °FScattered clouds.35 mph71%29.30 "Hg6 mi
4:20 PM50 °FBroken clouds.40 mph67%29.27 "Hg4 mi
3:50 PM50 °FBroken clouds.38 mph67%29.27 "Hg4 mi
3:20 PM50 °FSprinkles. Broken clouds.38 mph67%29.24 "Hg3 mi
2:50 PM50 °FSprinkles. Broken clouds.37 mph71%29.24 "Hg3 mi
2:20 PM50 °FBroken clouds.38 mph71%29.21 "Hg4 mi
1:50 PM50 °FBroken clouds.38 mph71%29.21 "Hg4 mi
1:20 PM50 °FScattered clouds.39 mph71%29.18 "Hg4 mi
12:50 PM50 °FScattered clouds.39 mph67%29.18 "Hg4 mi
12:20 PM50 °FRain showers. Broken clouds.38 mph71%29.18 "Hg4 mi
11:50 AM50 °FPartly sunny.36 mph67%29.18 "Hg4 mi
11:20 AM48 °FScattered clouds.35 mph71%29.18 "Hg4 mi
10:50 AM48 °FSprinkles. Scattered clouds.32 mph71%29.18 "Hg4 mi
10:20 AM48 °FSprinkles. Scattered clouds.33 mph71%29.18 "Hg4 mi
9:50 AM48 °FScattered clouds.28 mph71%29.18 "Hg4 mi
9:20 AM48 °FScattered clouds.31 mph71%29.15 "Hg5 mi
8:50 AM48 °FScattered clouds.32 mph71%29.15 "Hg5 mi
8:20 AM46 °FPassing clouds.29 mph76%29.15 "HgN/A
7:50 AM46 °FPassing clouds.23 mph76%29.15 "HgN/A
Weather by CustomWeather, © 2016

See weather overviewHow to use our weather pages